KE9LZ-9 Weather Reports


time (UTC)temp
C
wind
direction
speed
KPH
gust
KPH
rain 1hr
cm
rain 24hr
cm
rain mn
cm
humidity
%
barometer
mb
20260510005004 8 51 3.2 25.7 0.00 0.00 0.00 38 1010.3
20260510004004 8 306 4.8 19.3 0.00 0.00 0.00 39 1009.9
20260510003004 8 331 11.3 25.7 0.00 0.00 0.00 38 1010.0
20260510002003 9 309 12.9 32.2 0.00 0.00 0.00 39 1009.6
20260510001004 10 352 9.7 27.4 0.00 0.00 0.00 38 1009.5
20260510000004 11 27 6.4 27.4 0.00 0.00 0.00 39 1009.5
20260509235004 10 339 6.4 16.1 0.00 0.00 0.00 40 1009.1
20260509233004 10 350 4.8 19.3 0.00 0.00 0.00 40 1008.4
20260509232004 10 3 6.4 16.1 0.00 0.00 0.00 38 1008.1
20260509231003 11 14 4.8 11.3 0.00 0.00 0.00 39 1008.0
20260509230003 11 356 3.2 19.3 0.00 0.00 0.00 38 1007.7
20260509225003 12 322 8.0 24.1 0.00 0.00 0.00 35 1007.6
20260509224005 13 317 8.0 16.1 0.00 0.00 0.00 33 1007.5
20260509223004 12 324 4.8 24.1 0.00 0.00 0.00 34 1007.1
20260509222004 12 322 6.4 35.4 0.00 0.00 0.00 33 1006.9
20260509221003 13 341 8.0 29.0 0.00 0.00 0.00 32 1006.9
20260509215004 13 13 6.4 33.8 0.00 0.00 0.00 32 1006.5
20260509213004 13 10 4.8 16.1 0.00 0.00 0.00 31 1005.9
20260509212004 13 348 9.7 27.4 0.00 0.00 0.00 30 1005.7
20260509211003 13 0 8.0 25.7 0.00 0.00 0.00 29 1005.5
20260509210004 15 319 9.7 20.9 0.00 0.00 0.00 29 1005.4
20260509203004 13 309 9.7 25.7 0.00 0.00 0.00 30 1005.0
20260509202004 14 325 9.7 40.2 0.00 0.00 0.00 30 1004.9
20260509201004 15 347 4.8 22.5 0.00 0.00 0.00 28 1004.5
20260509200004 14 353 8.0 37.0 0.00 0.00 0.00 29 1004.5
20260509195004 14 281 17.7 25.7 0.00 0.00 0.00 28 1003.9
20260509194003 13 323 9.7 24.1 0.00 0.00 0.00 30 1004.1
20260509193004 13 323 6.4 25.7 0.00 0.00 0.00 29 1003.7
20260509192004 13 291 11.3 33.8 0.00 0.00 0.00 30 1003.5
20260509191004 15 324 12.9 25.7 0.00 0.00 0.00 29 1003.5
20260509190004 13 354 11.3 27.4 0.00 0.00 0.00 31 1003.4
20260509185004 13 308 8.0 25.7 0.00 0.00 0.00 30 1003.2
20260509181004 14 327 4.8 20.9 0.00 0.00 0.00 32 1002.7
20260509180004 13 331 4.8 22.5 0.00 0.00 0.00 34 1002.9
20260509175003 15 355 3.2 29.0 0.00 0.00 0.00 31 1002.6
20260509174004 13 294 14.5 25.7 0.00 0.00 0.00 32 1002.8
20260509173003 13 282 4.8 24.1 0.00 0.00 0.00 32 1002.3
20260509172003 14 330 8.0 20.9 0.00 0.00 0.00 31 1002.1
20260509171004 13 299 4.8 27.4 0.00 0.00 0.00 32 1002.2
20260509165004 14 345 4.8 14.5 0.00 0.00 0.00 31 1001.8
20260509164004 12 337 8.0 19.3 0.00 0.00 0.00 34 1001.8
20260509163004 13 305 3.2 24.1 0.00 0.00 0.00 33 1001.8
20260509162003 12 341 8.0 25.7 0.00 0.00 0.00 34 1001.7
20260509161004 12 297 9.7 19.3 0.00 0.00 0.00 34 1001.5
20260509160003 12 355 3.2 27.4 0.00 0.00 0.00 35 1001.6
20260509155004 13 285 4.8 16.1 0.00 0.00 0.00 34 1001.3
20260509154004 13 274 11.3 33.8 0.00 0.00 0.00 33 1001.2
20260509153004 13 288 8.0 16.1 0.00 0.00 0.00 32 1000.9
20260509152004 13 303 6.4 27.4 0.00 0.00 0.00 31 1000.7
20260509151004 13 297 6.4 16.1 0.00 0.00 0.00 33 1000.5
20260509150004 13 323 6.4 22.5 0.00 0.00 0.00 34 1000.5
20260509145003 13 293 6.4 27.4 0.00 0.00 0.00 35 1000.8
20260509144004 12 288 4.8 20.9 0.00 0.00 0.00 36 1000.9
20260509143004 12 330 6.4 20.9 0.00 0.00 0.00 37 1000.6
20260509141003 11 348 3.2 22.5 0.00 0.00 0.00 40 1000.6
20260509140005 11 314 4.8 19.3 0.00 0.00 0.00 40 1000.4
20260509134004 12 295 3.2 11.3 0.00 0.00 0.00 41 1000.2
20260509133004 11 282 4.8 12.9 0.00 0.00 0.00 42 1000.2
20260509132003 11 287 4.8 11.3 0.00 0.00 0.00 42 1000.3
20260509131004 11 293 3.2 16.1 0.00 0.00 0.00 43 1000.3
20260509130004 11 277 6.4 11.3 0.00 0.00 0.00 43 1000.2
20260509125004 11 298 4.8 16.1 0.00 0.00 0.00 43 1000.4
20260509124005 11 291 4.8 14.5 0.00 0.00 0.00 44 1000.3
20260509123003 11 309 4.8 11.3 0.00 0.00 0.00 44 1000.0
20260509122004 11 349 4.8 20.9 0.00 0.00 0.00 44 1000.1
20260509121004 10 285 4.8 19.3 0.00 0.00 0.00 46 999.9
20260509120004 10 333 3.2 16.1 0.00 0.00 0.00 46 999.7
20260509115004 10 16 3.2 12.9 0.00 0.00 0.00 46 999.6
20260509114003 10 344 6.4 12.9 0.00 0.00 0.00 46 999.5
20260509113004 10 346 4.8 11.3 0.00 0.00 0.00 47 999.1
20260509112004 10 332 3.2 14.5 0.00 0.00 0.00 47 998.9
20260509111004 10 335 3.2 12.9 0.00 0.00 0.00 47 998.7
20260509110004 10 330 4.8 11.3 0.00 0.00 0.00 47 998.4
20260509105004 10 318 4.8 9.7 0.00 0.00 0.00 47 998.5
20260509104004 10 338 4.8 14.5 0.00 0.00 0.00 47 998.5
20260509102004 10 339 4.8 14.5 0.00 0.00 0.00 48 998.4
20260509101004 10 329 3.2 16.1 0.00 0.00 0.00 50 998.8
20260509093003 8 325 1.6 3.2 0.00 0.00 0.00 59 998.4
20260509092004 8 331 1.6 3.2 0.00 0.00 0.00 60 998.6
20260509091005 8 350 3.2 8.0 0.00 0.00 0.00 57 998.6
20260509090004 8 269 3.2 8.0 0.00 0.00 0.00 57 998.7
20260509085004 7 28 0.0 3.2 0.00 0.00 0.00 63 998.4
20260509084004 7 58 0.0 3.2 0.00 0.00 0.00 66 998.6
20260509083004 7 329 0.0 3.2 0.00 0.00 0.00 65 998.8
20260509082004 7 25 0.0 3.2 0.00 0.00 0.00 65 998.7
20260509081004 6 336 0.0 3.2 0.00 0.00 0.00 66 998.6
20260509080003 6 55 0.0 1.6 0.00 0.00 0.00 67 998.6
20260509075004 6 96 0.0 1.6 0.00 0.00 0.00 68 998.7
20260509074004 6 57 0.0 1.6 0.00 0.00 0.00 67 998.8
20260509073004 6 304 0.0 1.6 0.00 0.00 0.00 66 998.9
20260509072004 6 87 0.0 3.2 0.00 0.00 0.00 67 999.1
20260509071004 6 32 0.0 1.6 0.00 0.00 0.00 65 999.1
20260509070004 6 355 0.0 1.6 0.00 0.00 0.00 64 999.3
20260509063004 6 37 0.0 1.6 0.00 0.00 0.00 61 999.7
20260509062004 6 345 0.0 1.6 0.00 0.00 0.00 62 999.6
20260509060004 7 69 0.0 3.2 0.00 0.00 0.00 61 999.9
20260509053004 7 34 0.0 1.6 0.00 0.00 0.00 58 1000.2
20260509052003 7 11 0.0 1.6 0.00 0.00 0.00 60 1000.5
20260509051004 7 319 0.0 1.6 0.00 0.00 0.00 57 1000.6
20260509050004 7 339 0.0 1.6 0.00 0.00 0.00 58 1000.6
20260509045004 7 12 0.0 1.6 0.00 0.00 0.00 59 1000.8
20260509044004 7 4 0.0 1.6 0.00 0.00 0.00 59 1000.8
20260509043004 7 327 0.0 1.6 0.00 0.00 0.00 59 1000.9
20260509042004 7 353 0.0 1.6 0.00 0.00 0.00 60 1001.2
20260509041003 7 319 0.0 1.6 0.00 0.00 0.00 58 1001.1
20260509040004 7 299 0.0 1.6 0.00 0.00 0.00 56 1001.2
20260509035004 8 317 0.0 1.6 0.00 0.00 0.00 55 1001.4
20260509034004 8 22 0.0 1.6 0.00 0.00 0.00 54 1001.7
20260509031005 8 312 0.0 1.6 0.00 0.00 0.00 51 1001.8
20260509030003 8 310 0.0 1.6 0.00 0.00 0.00 50 1001.9
20260509025004 8 334 1.6 1.6 0.00 0.00 0.00 50 1002.1
20260509024004 8 32 0.0 1.6 0.00 0.00 0.00 49 1002.0
20260509023004 9 324 0.0 1.6 0.00 0.00 0.00 49 1002.1
20260509022003 10 324 1.6 1.6 0.00 0.00 0.00 47 1002.1
20260509020004 11 32 0.0 3.2 0.00 0.00 0.00 44 1002.4
20260509015004 12 309 0.0 3.2 0.00 0.00 0.00 42 1002.4
20260509014004 13 345 1.6 3.2 0.00 0.00 0.00 39 1002.3
20260509012004 15 333 1.6 4.8 0.00 0.00 0.00 36 1002.3